Retour au catalogue

STARLINK-37238

ActifCommunicationsVLEO
NORAD 69247·PAYLOAD·🇺🇸 United States

Lancé May 29, 2026 depuis Cape Canaveral Space Force Station

Loading…

Prochains Passages (prochaines 24 heures)

TLE

FraisSource: CelesTrak SupGP

Époque: Sep 14, 2026, 22:37 UTC

1 69247C 26117K   26257.94284722 -.00038004  00000+0 -11224-2 0  2570
2 69247  53.1571 179.6187 0001225  81.8175 342.1323 15.34422623    12

Suivez STARLINK-37238 en temps réel avec AllMySat

Download on the App Store